Weather in Kavarna

Bulgaria     43°26′09″N   28°20′21″E
temp.,
°C
wind,
m/s
gust,
m/s
humid.,
%
clouds,
%
prec.,
mm/h
press.,
hPa
HPBL,
m
17 june, thu
thu1700:00+16nw4792100 0.0 1014241
03:00+16nw51093100 0.4 1014276
06:00+16nnw61292100 0.0 1013385
09:00+18nnw7118386 0.1 1015573
12:00+22nnw686325 0.0 10151285
15:00+24n5648100 0.1 10151928
18:00+22nnw2560100 0.0 1016975
21:00+18nne2280100 0.1 101632
18 june, fri
fri1800:00+18wnw3777100 0.0 1016196
03:00+19nw61475100 0.1 1014584
06:00+18nw91677100 0.9 1014623
09:00+17nw71292100 7.1 1013419
12:00+18nw61095100 2.0 1013575
15:00+19wnw6889100 3.8 1013573
18:00+21nw578034 2.1 1012651
21:00+18nnw488598 3.5 1012181
19 june, sat
sat1900:00+16wnw489434 0.1 1011258
03:00+17w4796100 0.4 1010309
06:00+17nw2497100 0.7 1010200
09:00+18nne2293100 1.2 1010272
12:00+21e117726 1.8 1010637
15:00+21se658190 4.7 1010782
18:00+20se4582100 0.5 1011682
21:00+18ese369572 0.6 1012184
20 june, sun
sun2000:00+17ene229730 0.1 101250
03:00+17nne339832 0.1 101267
06:00+16n359860 0.0 1012145
09:00+20n3484100 0.0 1012491
12:00+24nne236638 0.0 10121131
15:00+23ese1272100 3.9 1011822
18:00+23se227616 1.6 1010641
21:00+18sse229433 5.6 101145
21 june, mon
mon2100:00+18w119340 0.8 101112
03:00+18wnw2293100 1.1 101022
06:00+18nw3493100 0.0 101197
09:00+21nnw228240 0.0 1012382
12:00+24e126952 0.6 1012965
15:00+24sse3274100 3.0 1011689
18:00+22s338399 2.3 1012233
21:00+19sw119043 2.7 101113